Home > Weather > Jerusalem > Past weeks

Flag for Israel Past Weather in Jerusalem, Israel — Yesterday and Last 2 Weeks

Now
79 °F

Passing clouds.


Feels Like: 82 °F
Forecast: 69 / 82 °F
Wind: 8 mph from South

Location: Ben Gurion International Airport

Current Time: Jun 29, 2016 at 6:59:17 AM

Latest Report: Jun 29, 2016 at 6:20 AM


Visibility: N/A

Pressure: 29.74 "Hg (27.24 "Hg at 769m altitude)

Humidity: 79%

Dew Point: 72 °F

Location of JerusalemLocation

Past Weather in Jerusalem — Graph

°F

Jerusalem Temperature Yesterday

Maximum temperature yesterday: 86 °F (at 11:50 AM)
Minimum temperature yesterday: 75 °F (at 5:20 AM)
Average temperature yesterday: 81 °F

High & Low Weather Summary for the Past Weeks

 TemperatureHumidityPressure
High97 °F (Jun 14, 3:50 PM)94% (Jun 20, 4:20 AM)29.89 "Hg (Jun 20, 4:20 AM)
Low72 °F (Jun 16, 3:50 AM)20% (Jun 14, 4:50 PM)29.68 "Hg (Jun 24, 3:20 PM)
Average82 °F63%29.77 "Hg
* Reported Jun 14 5:20 AM — Jun 29 5:20 AM, Jerusalem, Weather by CustomWeather, © 2016

Note: Actual official high and low records may vary slightly from our data, if they occured in-between our weather recording intervals... More about our weather records

Advertising

Jerusalem Weather History for the Previous 24 Hours

Scroll right to see more
 ConditionsComfort  
Time TempWeatherWind HumidityBarometerVisibility
5:20 AM
Wed, Jun 29
77 °FPassing clouds.8 mph83%29.74 "HgN/A
4:50 AM77 °FPassing clouds.6 mph83%29.74 "HgN/A
4:20 AM77 °FPassing clouds.6 mph79%29.74 "HgN/A
3:50 AM77 °FPassing clouds.6 mph79%29.74 "HgN/A
3:20 AM77 °FPassing clouds.7 mph79%29.74 "HgN/A
2:50 AM79 °FPassing clouds.7 mph74%29.74 "HgN/A
2:20 AM79 °FPassing clouds.7 mph74%29.74 "HgN/A
1:50 AM79 °FPassing clouds.7 mph74%29.74 "HgN/A
1:20 AM79 °FPartly cloudy.7 mph74%29.74 "HgN/A
12:50 AM79 °FPartly cloudy.7 mph79%29.74 "HgN/A
12:20 AM81 °FPartly cloudy.6 mph74%29.74 "HgN/A
11:50 PM
Tue, Jun 28
81 °FPassing clouds.6 mph74%29.74 "HgN/A
11:20 PM81 °FPassing clouds.7 mph74%29.74 "HgN/A
10:50 PM81 °FPassing clouds.5 mph74%29.74 "HgN/A
10:20 PM81 °FPassing clouds.6 mph74%29.77 "HgN/A
9:50 PM81 °FPassing clouds.3 mph74%29.74 "HgN/A
9:20 PM81 °FPassing clouds.6 mph70%29.74 "HgN/A
8:50 PM81 °FPassing clouds.6 mph70%29.74 "HgN/A
8:20 PM81 °FPassing clouds.6 mph70%29.74 "HgN/A
7:50 PM81 °FPassing clouds.7 mph70%29.74 "HgN/A
7:20 PM82 °FPassing clouds.9 mph66%29.71 "HgN/A
6:50 PM82 °FPassing clouds.9 mph66%29.71 "HgN/A
6:20 PM84 °FPassing clouds.12 mph62%29.71 "HgN/A
5:50 PM82 °FPassing clouds.10 mph66%29.71 "HgN/A
5:20 PM84 °FPassing clouds.13 mph62%29.71 "HgN/A
4:50 PM86 °FPassing clouds.13 mph55%29.71 "HgN/A
4:20 PM86 °FPassing clouds.12 mph52%29.71 "HgN/A
3:50 PM84 °FPassing clouds.13 mph55%29.71 "HgN/A
3:20 PM86 °FScattered clouds.12 mph52%29.71 "HgN/A
2:50 PM86 °FScattered clouds.12 mph55%29.71 "HgN/A
2:20 PM86 °FScattered clouds.13 mph52%29.71 "HgN/A
1:50 PM86 °FScattered clouds.14 mph52%29.71 "HgN/A
1:20 PM86 °FScattered clouds.13 mph52%29.74 "HgN/A
12:50 PM86 °FPartly sunny.12 mph55%29.74 "HgN/A
12:20 PM84 °FScattered clouds.12 mph55%29.74 "HgN/A
11:50 AM86 °FScattered clouds.10 mph52%29.74 "HgN/A
11:20 AM84 °FScattered clouds.8 mph51%29.74 "HgN/A
10:50 AM84 °FScattered clouds.10 mph51%29.74 "HgN/A
10:20 AM82 °FScattered clouds.9 mph58%29.74 "HgN/A
9:50 AM82 °FScattered clouds.9 mph58%29.74 "HgN/A
9:20 AM82 °FScattered clouds.10 mph58%29.74 "HgN/A
8:50 AM81 °FScattered clouds.9 mph66%29.74 "HgN/A
8:20 AM81 °FScattered clouds.6 mph66%29.74 "HgN/A
7:50 AM81 °FScattered clouds.6 mph66%29.74 "HgN/A
7:20 AM77 °FScattered clouds.6 mph74%29.74 "HgN/A
6:50 AM77 °FScattered clouds.6 mph69%29.74 "HgN/A
6:20 AM77 °FPassing clouds.5 mph69%29.74 "HgN/A
Weather by CustomWeather, © 2016

See weather overviewHow to use our weather pages